This is the latest recevied weather packets stored in our database for station/object WA9AFM. If no packets are shown the sender has not sent any weather packets the latest 10 day(s).
| Time | Temp. | Humidity | Pressure | Rain* | Wind** | Luminosity | Snow |
|---|---|---|---|---|---|---|---|
| 1787585604 | 31.67° C | 48% | 1005 hPa | 0 mm | - | - | - |
| 1787584706 | 31.11° C | 48% | 1005 hPa | 0 mm | - | - | - |
| 1787583805 | 31.11° C | 53% | 1005 hPa | 0 mm | - | - | - |
| 1787582904 | 30.56° C | 52% | 1004.9 hPa | 0 mm | - | - | - |
| 1787582006 | 30° C | 52% | 1005.1 hPa | 0 mm | - | - | - |
| 1787581105 | 29.44° C | 57% | 1005.1 hPa | 0 mm | - | - | - |
| 1787580204 | 28.89° C | 59% | 1005.2 hPa | 0 mm | - | - | - |
| 1787579305 | 28.33° C | 63% | 1005.4 hPa | 0 mm | - | - | - |
| 1787578405 | 27.22° C | 65% | 1005.5 hPa | 0 mm | - | - | - |
| 1787577506 | 27.22° C | 65% | 1005.7 hPa | 0 mm | - | - | - |
| 1787576605 | 27.22° C | 65% | 1005.5 hPa | 0 mm | - | - | - |
| 1787575704 | 27.22° C | 65% | 1005.7 hPa | 0 mm | - | - | - |
| 1787574806 | 27.22° C | 66% | 1005.8 hPa | 0 mm | - | - | - |
| 1787573905 | 27.22° C | 66% | 1005.7 hPa | 0 mm | - | - | - |
| 1787573004 | 27.22° C | 66% | 1005.7 hPa | 0 mm | - | - | - |
| 1787572105 | 27.78° C | 64% | 1005.8 hPa | 0 mm | - | - | - |
| 1787571205 | 27.78° C | 62% | 1005.6 hPa | 0 mm | - | - | - |
| 1787570305 | 27.78° C | 64% | 1005.6 hPa | 0 mm | - | - | - |
| 1787569404 | 27.78° C | 63% | 1005.5 hPa | 0 mm | - | - | - |
| 1787568505 | 27.22° C | 64% | 1005.4 hPa | 0 mm | - | - | - |
| 1787567605 | 27.22° C | 66% | 1005.5 hPa | 0 mm | - | - | - |
| 1787566706 | 27.22° C | 67% | 1005.3 hPa | 0 mm | - | - | - |
| 1787565805 | 27.22° C | 65% | 1005.2 hPa | 0 mm | - | - | - |
| 1787564904 | 27.78° C | 66% | 1005.2 hPa | 0 mm | - | - | - |
| 1787564006 | 27.78° C | 63% | 1005.1 hPa | 0 mm | - | - | - |
* Rain latest hour (hover to see other rain measurements)
** Current wind speed in m/s (hover to see current wind gust speed)